Vertical_Velocity
0 0 -1 -2 -2 -1 -0 -0 -1 -7 -0 5 -0 3 4 -2 -4 -3 -0 -1 -2 -1 1 1 -0 -1 2 -0 0 1 -1 -0 -1 -0 -1 -1 -0 -1
-2 -2 -1 1 -1 -2 -0 -0 -2 -2 -7 -5 1 1 -0 3 2 -4 -4 -0 3 -1 -1 -0 -0 1 0 0 0 -1 1 1 0 -1 -1 1 -0 -0
-4 -1 -1 -2 0 2 1 -0 1 -2 -7 7 -4 -1 1 -1 3 0 -2 -4 -0 1 -1 1 0 -1 1 1 -1 2 -1 0 1 1 1 -1 -0 -0
1 -2 0 -4 -3 -5 -3 -0 -3 -2 -5 -3 0 0 -1 -0 -2 0 -1 0 -3 3 -0 0 -1 -1 -1 -2 1 -0 -0 2 1 2 1 1 2 -0
2 0 1 -3 2 -1 -4 -5 -5 -0 -2 -5 2 -3 -1 3 1 -0 4 -2 -3 -4 -1 1 1 1 0 -0 -2 -1 1 0 4 2 1 2 1 0
-2 -3 -2 -2 -2 -3 -1 1 0 -3 -5 -8 -1 2 -3 -1 3 -2 2 3 0 -6 -1 0 -1 -1 0 -0 2 0 -3 -2 -0 3 3 0 2 2
-3 -5 -4 -2 -0 -0 -1 5 -2 -3 -2 -1 -3 -6 -0 -0 -1 -2 0 -1 6 2 2 1 2 -4 -2 0 -1 0 -1 -1 -4 -2 4 2 1 1
-1 4 4 5 3 1 3 0 3 -3 1 -0 0 -3 7 1 -6 2 -4 1 -2 1 3 6 -4 2 -1 -0 0 4 -1 0 -3 -2 -4 2 3 3
-4 -2 1 1 -0 2 7 4 7 4 1 3 2 7 -1 4 -3 2 1 3 -3 -1 3 1 4 2 -1 -1 0 1 3 0 1 0 -0 -1 -1 1
1 1 -0 2 7 1 2 6 10 8 4 3 2 7 3 7 -0 -1 2 3 -0 -2 2 -5 8 4 2 1 -2 2 1 3 -1 2 0 0 1 -2
-0 1 1 -2 1 -3 -10 -7 -6 -2 5 -1 2 1 2 4 -2 3 4 -3 2 1 1 -3 3 5 1 3 4 0 2 2 2 1 3 0 -0 2
-2 3 9 -1 -1 4 -3 1 -5 1 -3 1 1 2 0 4 0 -3 2 1 -1 -4 6 -5 2 1 1 3 1 4 1 2 4 -1 2 2 1 -0
-1 -2 3 2 2 3 4 3 2 0 4 4 2 2 5 1 0 0 -0 2 -0 1 1 -1 4 1 -2 -0 2 1 2 0 1 3 -1 1 2 -0
-2 -0 -3 4 2 4 -0 -2 -1 5 2 1 2 4 5 2 3 -3 2 1 0 2 1 -1 -3 4 2 -1 1 3 0 2 0 1 1 -0 0 3
-1 -2 1 1 0 1 2 2 3 -1 -2 -2 -2 -2 2 3 3 2 -0 6 -0 2 4 2 1 3 3 0 2 1 -0 2 1 2 1 2 1 1
-0 -0 -1 0 3 -1 -2 2 1 1 -0 -6 -5 1 -4 0 -0 2 1 3 -1 9 3 1 -0 -1 1 3 0 1 2 -2 3 1 2 1 0 1
-6 -1 1 3 -1 2 6 3 -2 0 3 0 0 -7 -2 -2 2 -1 0 0 -1 -3 7 8 6 1 1 2 1 1 1 3 1 1 3 1 -0 2
-5 -1 1 2 2 -1 0 2 2 0 2 1 1 0 -1 -1 2 1 -1 -4 -1 2 5 -1 6 3 3 4 2 2 3 3 1 2 -2 2 -1 4
-1 -1 -2 2 2 2 0 -1 1 2 1 2 1 0 -1 -1 -0 0 0 -1 -2 -0 2 4 -2 1 4 3 -0 0 0 -2 2 2 1 0 2 -1
-1 -3 -2 -0 1 0 -0 -1 1 1 1 -1 -0 0 0 -2 -2 1 0 0 -2 -1 1 0 2 4 0 2 0 3 3 4 1 -1 1 0 1 2
-0 -2 1 -1 -2 -2 1 1 -2 1 1 0 -1 -3 -0 -2 -3 -0 1 2 1 -3 -1 0 4 -0 -1 3 1 -2 -1 2 2 2 1 2 -0 1
1 -2 -0 -2 -4 -4 -1 -0 -0 -1 -1 -1 -1 -2 -3 -2 -2 -1 1 1 3 -1 -1 1 2 0 2 2 -1 2 1 2 2 0 -0 -1 1 2
-1 -3 -1 -1 -1 -1 -0 -0 -1 0 1 -1 -2 -1 -1 -3 -0 -2 -1 1 -0 2 1 -3 1 -0 1 2 1 2 2 0 0 -1 2 3 -1 2
Height
3088 3086 3084 3081 3078 3075 3071 3067 3061 3058 3062 3064 3060 3058 3054 3051 3050 3048 3047 3046 3046 3046 3045 3044 3043 3042 3041 3042 3042 3042 3042 3041 3041 3040 3040 3039 3039 3038
3080 3078 3075 3073 3071 3067 3064 3061 3057 3052 3043 3056 3051 3048 3046 3043 3041 3039 3038 3038 3037 3036 3036 3036 3037 3036 3035 3034 3034 3035 3035 3035 3036 3035 3035 3035 3034 3034
3072 3069 3067 3063 3062 3059 3055 3053 3050 3045 3037 3039 3042 3040 3037 3034 3031 3028 3029 3028 3028 3028 3027 3027 3027 3028 3028 3028 3027 3026 3028 3029 3029 3030 3030 3030 3030 3031
3062 3058 3057 3053 3052 3049 3046 3043 3040 3037 3030 3025 3031 3030 3028 3026 3023 3019 3017 3017 3017 3017 3018 3018 3018 3019 3020 3021 3021 3020 3020 3021 3022 3023 3024 3025 3026 3026
3050 3047 3045 3042 3040 3037 3034 3031 3029 3025 3022 3015 3013 3018 3016 3016 3012 3011 3009 3007 3007 3008 3008 3007 3008 3009 3011 3012 3014 3014 3014 3014 3014 3015 3017 3018 3020 3021
3038 3035 3032 3029 3025 3024 3021 3019 3016 3013 3010 3006 3002 3002 3003 3004 3000 2999 2998 2997 2997 2997 2998 2998 2999 3000 3001 3001 3004 3006 3007 3007 3007 3008 3009 3010 3012 3013
3023 3020 3017 3014 3011 3008 3005 3005 3002 2999 2997 2994 2991 2989 2990 2990 2989 2986 2985 2987 2987 2987 2988 2987 2987 2989 2990 2992 2994 2995 2997 2999 3000 3001 3001 3003 3003 3004
3005 3004 3002 2999 2996 2993 2990 2987 2986 2984 2983 2980 2978 2977 2978 2976 2977 2973 2972 2975 2976 2976 2976 2977 2977 2978 2979 2981 2983 2985 2988 2990 2991 2994 2995 2995 2997 2997
2991 2988 2986 2984 2982 2979 2976 2974 2973 2970 2968 2966 2965 2964 2963 2964 2962 2963 2961 2961 2963 2964 2964 2966 2966 2968 2967 2970 2972 2974 2977 2979 2981 2984 2986 2988 2989 2990
2977 2973 2970 2969 2968 2964 2961 2961 2960 2958 2956 2954 2951 2951 2951 2950 2949 2950 2950 2950 2950 2952 2952 2953 2956 2957 2957 2959 2962 2964 2966 2969 2972 2974 2977 2978 2980 2983
2965 2962 2959 2955 2954 2951 2948 2947 2946 2947 2945 2943 2942 2941 2941 2939 2939 2938 2938 2938 2939 2941 2942 2942 2947 2946 2947 2948 2951 2954 2956 2959 2961 2964 2967 2969 2971 2973
2953 2952 2948 2944 2942 2940 2937 2936 2935 2936 2935 2934 2933 2932 2931 2930 2929 2928 2928 2928 2929 2930 2933 2935 2936 2937 2939 2940 2942 2944 2946 2949 2951 2954 2956 2959 2961 2964
2940 2939 2938 2935 2933 2931 2928 2926 2924 2925 2924 2923 2924 2923 2923 2921 2920 2920 2919 2919 2919 2920 2922 2924 2926 2928 2929 2931 2933 2935 2937 2939 2942 2944 2946 2949 2952 2955
2930 2928 2927 2926 2923 2922 2918 2916 2915 2914 2914 2913 2913 2913 2913 2912 2911 2911 2911 2910 2911 2911 2913 2914 2914 2917 2919 2920 2922 2925 2927 2929 2931 2934 2937 2940 2942 2945
2920 2918 2916 2915 2913 2911 2909 2908 2906 2904 2903 2902 2902 2903 2903 2902 2902 2903 2903 2902 2903 2904 2904 2905 2906 2907 2908 2909 2911 2913 2916 2919 2921 2923 2926 2929 2931 2934
2911 2909 2907 2906 2904 2902 2900 2898 2896 2895 2893 2892 2891 2891 2892 2893 2894 2894 2894 2894 2893 2895 2896 2897 2897 2898 2899 2900 2901 2903 2905 2908 2911 2913 2915 2918 2921 2925
2901 2899 2898 2896 2893 2892 2890 2887 2886 2885 2884 2883 2882 2882 2883 2884 2885 2885 2886 2886 2886 2887 2887 2888 2889 2890 2891 2892 2893 2895 2897 2898 2900 2902 2904 2907 2911 2915
2893 2891 2889 2887 2884 2882 2880 2878 2876 2875 2875 2874 2873 2873 2874 2874 2875 2876 2877 2878 2879 2880 2880 2880 2881 2882 2883 2884 2885 2886 2887 2889 2891 2894 2896 2900 2903 2904
2885 2883 2880 2878 2876 2873 2871 2869 2868 2867 2866 2866 2865 2865 2864 2865 2865 2866 2868 2869 2871 2873 2873 2873 2874 2874 2875 2876 2877 2878 2879 2881 2882 2885 2888 2891 2894 2895
2878 2875 2872 2870 2868 2866 2864 2862 2861 2860 2859 2859 2858 2857 2857 2856 2856 2857 2859 2860 2862 2864 2866 2867 2867 2867 2868 2869 2871 2872 2872 2873 2875 2878 2881 2884 2886 2889
2868 2866 2864 2861 2859 2856 2855 2853 2852 2852 2852 2851 2850 2849 2848 2848 2848 2848 2850 2851 2854 2856 2858 2861 2861 2861 2862 2863 2865 2866 2866 2867 2870 2872 2875 2877 2880 2882
2859 2856 2854 2852 2849 2846 2844 2843 2843 2843 2842 2841 2840 2839 2839 2838 2839 2839 2840 2842 2845 2848 2850 2854 2854 2856 2856 2858 2859 2860 2861 2863 2865 2867 2870 2872 2874 2875
2847 2845 2843 2841 2839 2837 2835 2834 2833 2833 2833 2832 2830 2829 2828 2828 2829 2830 2832 2833 2836 2839 2842 2846 2848 2850 2851 2852 2854 2855 2856 2857 2860 2862 2864 2866 2868 2870